Hourly Weather Kyzylivka

Today, 31 October, Saturday

Time Temperature Precipitation Wind Pressure Humidity
00:00 +11°C° 0 mm 1 mps 728 mmHg 87%
01:00 +11°C° 0 mm 1 mps 727 mmHg 87%
02:00 +11°C° 0 mm 1 mps 727 mmHg 87%
03:00 +11°C° 1.1 mm 1 mps 727 mmHg 88%
04:00 +11°C° 1.1 mm 1 mps 727 mmHg 89%
05:00 +11°C° 1.1 mm 1 mps 727 mmHg 89%
06:00 +10°C° 2 mm 2 mps 727 mmHg 91%
07:00 +9°C° 2 mm 2 mps 727 mmHg 93%
08:00 +9°C° 2 mm 3 mps 727 mmHg 95%
09:00 +9°C° 0.6 mm 3 mps 727 mmHg 94%
10:00 +9°C° 0.6 mm 2 mps 727 mmHg 92%
11:00 +9°C° 0.6 mm 2 mps 727 mmHg 91%
12:00 +10°C° 0.2 mm 2 mps 727 mmHg 86%
13:00 +11°C° 0.2 mm 3 mps 727 mmHg 81%
14:00 +11°C° 0.2 mm 3 mps 727 mmHg 76%
15:00 +12°C° 0.1 mm 2 mps 727 mmHg 80%
16:00 +10°C° 0.1 mm 2 mps 727 mmHg 84%
17:00 +10°C° 0.1 mm 2 mps 727 mmHg 88%
18:00 +10°C° 0.2 mm 2 mps 727 mmHg 87%
19:00 +10°C° 0.2 mm 2 mps 728 mmHg 87%
20:00 +10°C° 0.2 mm 2 mps 728 mmHg 86%
21:00 +10°C° 0.2 mm 2 mps 728 mmHg 86%
22:00 +10°C° 0.2 mm 3 mps 728 mmHg 85%
23:00 +10°C° 0.2 mm 4 mps 728 mmHg 84%

Tomorrow, 1 November, Sunday

Time Temperature Precipitation Wind Pressure Humidity
00:00 +9°C° 0.1 mm 3 mps 727 mmHg 85%
01:00 +9°C° 0.1 mm 3 mps 727 mmHg 85%
02:00 +8°C° 0.1 mm 2 mps 727 mmHg 86%
03:00 +9°C° 0.2 mm 2 mps 726 mmHg 86%
04:00 +10°C° 0.2 mm 1 mps 726 mmHg 86%
05:00 +10°C° 0.2 mm 1 mps 726 mmHg 86%
06:00 +9°C° 1.3 mm 2 mps 726 mmHg 85%
07:00 +8°C° 1.3 mm 2 mps 726 mmHg 84%
08:00 +8°C° 1.3 mm 2 mps 726 mmHg 83%
09:00 +9°C° 1 mm 3 mps 726 mmHg 80%
10:00 +10°C° 1 mm 3 mps 726 mmHg 78%
11:00 +11°C° 1 mm 3 mps 726 mmHg 75%
12:00 +11°C° 0.4 mm 4 mps 726 mmHg 76%
13:00 +11°C° 0.4 mm 4 mps 727 mmHg 77%
14:00 +10°C° 0.4 mm 5 mps 727 mmHg 78%
15:00 +9°C° 0.5 mm 5 mps 727 mmHg 80%
16:00 +9°C° 0.5 mm 5 mps 727 mmHg 82%
17:00 +9°C° 0.5 mm 5 mps 727 mmHg 84%
18:00 +9°C° 0.8 mm 5 mps 727 mmHg 86%
19:00 +9°C° 0.8 mm 6 mps 728 mmHg 88%
20:00 +9°C° 0.8 mm 6 mps 728 mmHg 90%
21:00 +9°C° 0.9 mm 6 mps 728 mmHg 89%
22:00 +9°C° 0.9 mm 6 mps 728 mmHg 87%
23:00 +9°C° 0.9 mm 6 mps 729 mmHg 86%

Day after tomorrow, 2 November, Monday

Time Temperature Precipitation Wind Pressure Humidity
00:00 +9°C° 0.6 mm 6 mps 729 mmHg 86%
01:00 +9°C° 0.6 mm 7 mps 729 mmHg 85%
02:00 +9°C° 0.6 mm 7 mps 729 mmHg 85%
03:00 +9°C° 0.7 mm 7 mps 730 mmHg 83%
04:00 +9°C° 0.7 mm 7 mps 730 mmHg 81%
05:00 +9°C° 0.7 mm 7 mps 730 mmHg 79%
06:00 +9°C° 0.4 mm 7 mps 730 mmHg 80%
07:00 +9°C° 0.4 mm 7 mps 731 mmHg 81%
08:00 +9°C° 0.4 mm 6 mps 731 mmHg 82%
09:00 +9°C° 0.5 mm 6 mps 731 mmHg 81%
10:00 +10°C° 0.5 mm 6 mps 731 mmHg 80%
11:00 +10°C° 0.5 mm 6 mps 732 mmHg 79%
12:00 +10°C° 0.4 mm 6 mps 732 mmHg 79%
13:00 +10°C° 0.4 mm 6 mps 732 mmHg 80%
14:00 +10°C° 0.4 mm 5 mps 731 mmHg 80%
15:00 +10°C° 0.3 mm 5 mps 732 mmHg 83%
16:00 +10°C° 0.3 mm 4 mps 732 mmHg 85%
17:00 +10°C° 0.3 mm 3 mps 732 mmHg 88%
18:00 +10°C° 0.2 mm 3 mps 732 mmHg 88%
19:00 +10°C° 0.2 mm 2 mps 733 mmHg 87%
20:00 +11°C° 0.2 mm 1 mps 733 mmHg 86%
21:00 +11°C° 0.1 mm 1 mps 733 mmHg 86%
22:00 +10°C° 0.1 mm 1 mps 733 mmHg 86%
23:00 +10°C° 0.1 mm 1 mps 733 mmHg 86%

3 November, Tuesday

Time Temperature Precipitation Wind Pressure Humidity
00:00 +10°C° 0.1 mm 1 mps 733 mmHg 86%
01:00 +10°C° 0.1 mm 1 mps 733 mmHg 86%
02:00 +10°C° 0.1 mm 1 mps 733 mmHg 86%
03:00 +10°C° 0.1 mm 1 mps 733 mmHg 86%
04:00 +10°C° 0.1 mm 1 mps 733 mmHg 87%
05:00 +10°C° 0.1 mm 1 mps 733 mmHg 88%
06:00 +10°C° 0.1 mm 1 mps 733 mmHg 87%
07:00 +11°C° 0.1 mm 1 mps 733 mmHg 86%
08:00 +11°C° 0.1 mm 1 mps 734 mmHg 84%
09:00 +12°C° 0 mm 1 mps 734 mmHg 78%
10:00 +13°C° 0 mm 1 mps 734 mmHg 72%
11:00 +14°C° 0 mm 1 mps 734 mmHg 66%
12:00 +14°C° 0 mm 1 mps 734 mmHg 64%
13:00 +14°C° 0 mm 1 mps 734 mmHg 63%
14:00 +14°C° 0 mm 2 mps 734 mmHg 62%
15:00 +13°C° 0 mm 2 mps 734 mmHg 66%
16:00 +12°C° 0 mm 2 mps 734 mmHg 70%
17:00 +10°C° 0 mm 2 mps 734 mmHg 74%
18:00 +10°C° 0 mm 2 mps 734 mmHg 76%
19:00 +9°C° 0 mm 2 mps 734 mmHg 79%
20:00 +8°C° 0 mm 2 mps 734 mmHg 81%
21:00 +9°C° 0 mm 1 mps 734 mmHg 82%
22:00 +9°C° 0 mm 1 mps 734 mmHg 83%
23:00 +9°C° 0 mm 1 mps 734 mmHg 83%

4 November, Wednesday

Time Temperature Precipitation Wind Pressure Humidity
00:00 +8°C° 0 mm 1 mps 734 mmHg 83%
01:00 +8°C° 0 mm 1 mps 734 mmHg 83%
02:00 +8°C° 0 mm 1 mps 734 mmHg 83%
03:00 +8°C° 0 mm 1 mps 734 mmHg 83%
04:00 +8°C° 0 mm 1 mps 734 mmHg 82%
05:00 +8°C° 0 mm 1 mps 734 mmHg 82%
06:00 +8°C° 0 mm 1 mps 734 mmHg 79%
07:00 +9°C° 0 mm 1 mps 734 mmHg 77%
08:00 +9°C° 0 mm 1 mps 734 mmHg 75%
09:00 +10°C° 0 mm 1 mps 734 mmHg 69%
10:00 +12°C° 0 mm 2 mps 735 mmHg 63%
11:00 +13°C° 0 mm 2 mps 735 mmHg 58%
12:00 +13°C° 0 mm 2 mps 735 mmHg 58%
13:00 +13°C° 0 mm 2 mps 735 mmHg 58%
14:00 +12°C° 0 mm 3 mps 735 mmHg 57%
15:00 +12°C° 0 mm 2 mps 735 mmHg 63%
16:00 +10°C° 0 mm 2 mps 735 mmHg 69%
17:00 +9°C° 0 mm 2 mps 735 mmHg 75%
18:00 +9°C° 0 mm 2 mps 735 mmHg 76%
19:00 +8°C° 0 mm 2 mps 735 mmHg 78%
20:00 +8°C° 0 mm 2 mps 735 mmHg 79%
21:00 +7°C° 0 mm 2 mps 735 mmHg 80%
22:00 +7°C° 0 mm 2 mps 736 mmHg 80%
23:00 +7°C° 0 mm 2 mps 736 mmHg 81%

5 November, Thursday

Time Temperature Precipitation Wind Pressure Humidity
00:00 +6°C° 0 mm 2 mps 736 mmHg 83%
01:00 +6°C° 0 mm 2 mps 736 mmHg 85%
02:00 +5°C° 0 mm 2 mps 736 mmHg 87%
03:00 +5°C° 0 mm 2 mps 736 mmHg 89%
04:00 +5°C° 0 mm 2 mps 736 mmHg 90%
05:00 +5°C° 0 mm 2 mps 737 mmHg 92%
06:00 +6°C° 0 mm 2 mps 737 mmHg 91%
07:00 +6°C° 0 mm 2 mps 737 mmHg 89%
08:00 +7°C° 0 mm 2 mps 738 mmHg 87%
09:00 +8°C° 0 mm 2 mps 738 mmHg 81%
10:00 +9°C° 0 mm 2 mps 738 mmHg 75%
11:00 +10°C° 0 mm 2 mps 738 mmHg 68%
12:00 +10°C° 0 mm 2 mps 738 mmHg 67%
13:00 +11°C° 0 mm 3 mps 738 mmHg 66%
14:00 +11°C° 0 mm 3 mps 738 mmHg 65%
15:00 +11°C° 0 mm 3 mps 738 mmHg 68%
16:00 +10°C° 0 mm 3 mps 738 mmHg 72%
17:00 +10°C° 0 mm 3 mps 738 mmHg 75%
18:00 +9°C° 0 mm 2 mps 738 mmHg 77%
19:00 +9°C° 0 mm 2 mps 738 mmHg 80%
20:00 +8°C° 0 mm 2 mps 738 mmHg 82%
21:00 +8°C° 0 mm 2 mps 738 mmHg 83%
22:00 +8°C° 0 mm 1 mps 738 mmHg 84%
23:00 +8°C° 0 mm 1 mps 738 mmHg 85%
Show more

We Need Your Consent

Meteoprog and our Service Providers may store and access personal data such as cookies, device identifiers or other similar technologies on your device and process such data to personalise content and ads, as well as provide social media features and to analyse the traffic.

  • Store and/or access information on your device

    Cookies, device identifiers or other information can be stored or accessed on your device for the purposes indicated above.

  • Personalised ads and content, ad and content measurement, audience insights, and products development

    Ads and content can be personalised based on a profile. More data can be added to better personalise ads and content. Ad and content performance can be measured. Insights about the audience who saw the ads and content can be derived. Such data can be used to develop or improve user’s experience, systems and software.

By clicking ‘I Agree’ you will allow the use of indicated cookies, device identifiers, web beacons or other similar technologies. Your settings can be changed in the browser on your device.

For certain purposes, legitimate interests may be relied on, rather than consent. You can read more about this in our Privacy and Cookie Policy.